OPS 4682 DEB, 38402

Orbit data source: Space-Track

OPS 4682 DEB, 38402 is space debris in LEO originally from a launch on Sat, 03 Apr 1965 UTC launched from the Air Force Western Test Range (AFWTR). Debris objects in space refer to the collection of defunct objects orbiting the Earth. Examples of debris include non-operational satellites, rocket bodies, and fragments generated from explosions, collisions, or faulty payload assembly.

Loading next visibility...
Identifier
38402, 1965-027DF
Orbit
LEO
Country
Flag of USUS
Related business
Manufacturer
Unknown
Mission
Spacecraft
Bus & Motor
Unknown
Mass
Unknown
Launch date (UTC)
1965-04-03 (61 years ago)
Launch vehicle
Unknown
Launch site
Air Force Western Test Range (AFWTR)
Object type
Payload
Rocket body
Debris
Shape & HBR
Unknown shape, 0.1 m
Radar Cross Section
Small (<0.1 m²)

Expand to show TLE details & history
Last TLE update: 4 days ago

TLE from 4 days ago
0 OPS 4682 DEB
1 38402U 65027DF  25298.42770643  .00000154  00000-0  53018-3 0  9996
2 38402  90.2403 359.9833 0029644 155.4611 204.7926 12.93786212556732
Epoch: 2025-10-25T10:15Z
TLE epoch observation values (Epoch: 2025-10-25T10:15:53.835Z)
Latitude
Longitude
171.95058°
Altitude
1,310.047 km
Speed
7.192 km/s
True Right ascension
23h 59m 55s
True Declination
0° 00' 00"
Sunlit
Object was in full shadow at epoch
Visualization orbit readout
Latitude
Unknown
Longitude
Unknown
Altitude
Unknown
Speed
Unknown
Apparent Right ascension
Unknown
Apparent Declination
Unknown
Sunlit
N/A
Visualization observer readout
Local Sidereal Time
23:53:06
Azimuth
Unknown
Elevation
Unknown
Doppler factor
Unknown
Orbital elements
Apogee altitude
1,306.379 km
Perigee altitude
1,260.954 km
Semi-major axis
7,661.803 km
Eccentricity
0.00296
Inclination
90.2403°
RAAN
359.9833°
Arg. of periapsis
155.4611°
True anomaly
204.65063°
Mean anomaly
204.7926°
Eccentric anomaly
204.72157°
Mean motion
3.23628 °/min
Orbital period
111.24 mins
BSTAR
0.00053018
Loading maneuver chart data...
Computing Atmospheric mass density...
Loading historical data...
Loading historical data...
Loading historical data...
Loading historical data...
Loading historical data...
Loading historical data...
Loading historical data...

Documentation

Showing up to 5 results
|